Regional Weather Roundup
Issued by NWS State College, PA

Home | Current Version | Previous Version | Graphics & Text | Print | Product List | Glossary On
Versions: 1 2 3 4 5 6 7 8 9 10 11 12 13 14 15 16 17 18 19 20 21 22 23 24 25 26 27 28 29 30 31 32 33 34 35 36 37 38 39 40 41 42 43 44 45 46 47 48 49 50
000
ASUS41 KCTP 301810
RWRCTP

REGIONAL WEATHER ROUNDUP
NATIONAL WEATHER SERVICE STATE COLLEGE PA
200 PM EDT SAT AUG 30 2014

Note: "fair" indicates few or no clouds below 12,000 feet with no
significant weather and/or obstructions to visibility.

* = STATION THAT DOES NOT REPORT PRECIPITATION /E.G. RAIN...SNOW...ETC/
    THUNDER OR FOG.

PAZ002>004-007>009-013>016-020>023-029>032-301900-
WESTERN PENNSYLVANIA

CITY           SKY/WX    TMP DP  RH WIND       PRES   REMARKS
ERIE           PTSUNNY   88  68  51 S13       30.01F
MEADVILLE      PTSUNNY   81  68  64 S9G18     30.07F
FRANKLIN*      CLOUDY    82  70  65 S9G20     30.11S
NEW CASTLE     FAIR      85  73  67 CALM      30.08F
BEAVER COUNTY  SUNNY     84  70  61 SW6       30.09F
BUTLER*        MOSUNNY   81  70  69 S7        30.12F
PITTSBURGH INT PTSUNNY   85  67  54 SW14      30.09F
PITTSBURGH     MOSUNNY   84  67  56 SW10      30.10F
INDIANA*       MOSUNNY   84  70  61 W13       30.16F
LATROBE        PTSUNNY   84  72  65 SW12      30.13F
WASHINGTON CO* MOSUNNY   84  68  58 SW7       30.11F
$$

PAZ004>006-010>012-017>019-024>028-033>037-041-042-045-046-049>053-301900-
CENTRAL PENNSYLVANIA

CITY           SKY/WX    TMP DP  RH WIND       PRES   REMARKS
BRADFORD       MOSUNNY   80  67  64 S9        30.14F
DUBOIS         PTSUNNY   79  68  69 VRB6      30.13F
CLEARFIELD     SUNNY     80  67  64 S12       30.15F
JOHNSTOWN      PTSUNNY   79  66  64 S7        30.18F
ALTOONA        SUNNY     80  66  62 SE8       30.17F
STATE COLLEGE  PTSUNNY   75  64  69 S6        30.17F
WILLIAMSPORT   CLOUDY    72  62  71 VRB7G20   30.17F
SELINSGROVE    CLOUDY    74  64  71 S9        30.19F
FT INDIANTOWN  CLOUDY    74  65  72 SE8       30.21F
CAPITAL CITY   CLOUDY    76  64  66 SE9       30.19F
HARRISBURG     CLOUDY    77  65  66 S6        30.18F
YORK           PTSUNNY   79  67  66 VRB6      30.19F
$$

PAZ038>040-043-044-047-048-054-055-060>062-067>071-301900-
EASTERN PENNSYLVANIA

CITY           SKY/WX    TMP DP  RH WIND       PRES   REMARKS
SCRANTON       CLOUDY    74  61  63 VRB6      30.20F
MOUNT POCONO   CLOUDY    67  59  75 S9        30.26F
ALLENTOWN      CLOUDY    76  61  59 SW9       30.22F
QUAKERTOWN*    CLOUDY    75  63  64 MISG      30.23F
READING        CLOUDY    76  59  55 S9        30.20F
LANCASTER      CLOUDY    76  61  59 S10       30.21F
COATESVILLE    MOCLDY    73  63  68 SE7       30.23F
POTTSTOWN      CLOUDY    75  61  61 SW7       30.24F
BLUE BELL      PTSUNNY   79  63  57 S7        30.22F
DOYLESTOWN     CLOUDY    74  62  66 VRB5      30.22F
WILLOW GROVE   NOT AVBL
NORTH PHILA    CLOUDY    78  58  49 SE6       30.23F
PHILADELPHIA   CLOUDY    78  61  55 S9        30.22F
$$



USA.gov is the U.S. government's official web portal to all federal, state and local government web resources and services.